Total_Precipitation_Accumulation
0.19 0.52 1.05 1.63 2.63 2.81 1.93 1.12 0.86 0.74 0.70 0.64 0.58 0.61 0.83 1.25 1.82 2.71 2.50 1.92 1.77 1.93 2.23 2.58 2.73 2.51 2.39 2.27 2.38 2.41 2.35 2.37 2.22 2.12 1.98 1.92 1.76 1.49 1.28 1.18 1.17 1.21 1.17 1.02 1.07 1.10 1.05 1.17 1.35
0.44 0.83 1.24 1.96 2.70 2.17 1.50 0.98 0.81 0.62 0.54 0.57 0.67 0.76 0.77 0.95 0.95 1.34 1.92 1.96 1.51 1.57 1.98 2.04 2.34 2.27 2.14 2.05 2.16 2.16 2.23 2.14 2.05 1.91 1.78 1.73 1.68 1.42 1.16 1.08 1.10 1.09 1.05 1.03 1.09 1.11 1.13 1.15 1.23
0.73 0.98 1.49 2.14 1.94 1.24 0.94 0.72 0.59 0.57 0.55 0.64 0.76 0.82 0.88 1.05 1.00 1.39 1.75 1.57 1.38 1.45 1.74 2.04 2.14 1.97 1.88 1.79 1.88 1.95 2.01 1.94 1.95 1.81 1.69 1.60 1.48 1.30 1.11 1.02 1.04 1.03 1.02 1.00 1.04 1.17 1.23 1.18 1.20
0.89 1.21 1.42 1.62 1.27 0.64 0.40 0.42 0.42 0.62 0.76 0.90 0.95 1.01 1.05 1.02 1.03 1.33 1.50 1.26 1.20 1.19 1.31 1.69 1.85 1.74 1.72 1.62 1.57 1.72 1.76 1.79 1.83 1.74 1.60 1.62 1.55 1.43 1.19 1.04 1.03 1.06 1.08 1.09 1.12 1.25 1.28 1.18 1.17
0.84 1.28 1.64 1.28 0.78 0.48 0.34 0.31 0.45 0.66 0.83 0.91 1.01 1.28 1.59 1.42 1.10 1.24 1.26 1.14 1.07 1.10 1.17 1.41 1.70 1.60 1.56 1.50 1.44 1.54 1.62 1.64 1.64 1.64 1.45 1.50 1.52 1.43 1.22 1.09 1.05 1.01 1.05 1.14 1.17 1.23 1.24 1.20 1.25
1.09 1.39 1.38 0.97 0.56 0.36 0.34 0.34 0.44 0.60 0.79 0.94 1.26 1.55 1.93 1.86 1.54 1.40 1.23 1.31 1.23 1.07 1.10 1.35 1.64 1.61 1.54 1.51 1.50 1.59 1.64 1.52 1.48 1.49 1.36 1.35 1.40 1.37 1.30 1.18 1.15 1.05 1.07 1.19 1.22 1.22 1.19 1.21 1.35
1.19 1.21 0.92 0.67 0.51 0.36 0.34 0.34 0.42 0.61 0.81 1.08 1.38 1.62 1.85 2.02 1.84 1.60 1.44 1.52 1.65 1.40 1.36 1.41 1.46 1.51 1.56 1.72 1.80 1.87 1.77 1.51 1.42 1.43 1.34 1.26 1.25 1.25 1.20 1.25 1.23 1.19 1.18 1.26 1.34 1.31 1.29 1.34 1.47
0.69 0.81 0.62 0.46 0.50 0.43 0.31 0.31 0.43 0.65 0.87 1.10 1.34 1.54 1.90 1.81 1.70 1.79 2.03 2.25 2.35 2.18 2.01 1.77 1.61 1.69 1.59 1.66 1.91 2.02 1.72 1.48 1.42 1.48 1.46 1.41 1.47 1.48 1.51 1.43 1.40 1.46 1.54 1.59 1.66 1.57 1.52 1.57 1.70
0.45 0.69 0.61 0.40 0.36 0.38 0.29 0.31 0.40 0.47 0.70 0.98 1.18 1.30 1.35 1.43 1.71 2.08 2.53 2.72 2.62 2.67 2.48 2.20 1.97 1.79 1.82 1.82 1.87 2.18 1.97 1.72 1.79 2.00 2.02 2.12 2.47 2.28 2.29 1.82 1.80 1.96 2.15 2.23 2.26 2.20 2.07 1.94 1.88
0.44 0.60 0.41 0.24 0.16 0.19 0.22 0.29 0.37 0.53 1.01 1.60 1.58 1.27 1.14 1.42 1.80 2.11 2.51 2.88 2.56 2.70 2.43 2.31 2.25 1.92 1.89 1.99 2.39 2.87 2.47 2.30 2.41 2.70 2.63 2.95 2.98 2.80 2.12 2.10 2.45 2.66 3.00 3.12 3.13 3.15 2.78 2.39 2.15
0.31 0.37 0.23 0.12 0.09 0.08 0.12 0.21 0.30 0.59 1.13 1.83 2.01 1.58 1.46 1.62 2.02 2.09 2.42 2.80 2.70 2.56 2.46 2.23 2.52 2.27 2.32 2.65 2.72 2.89 2.93 2.83 2.83 2.92 2.90 3.15 2.82 2.47 2.38 2.76 3.13 3.41 3.56 3.69 3.72 3.61 3.06 3.07 3.19
0.20 0.16 0.10 0.08 0.07 0.07 0.16 0.26 0.37 0.52 1.02 1.33 1.32 1.23 1.40 1.68 2.03 2.25 2.43 2.90 2.80 2.49 2.45 2.50 2.65 2.73 2.94 2.96 2.83 2.68 2.47 2.46 2.63 2.79 2.74 2.90 3.00 2.99 2.96 3.22 3.40 3.64 3.97 4.34 4.23 4.22 3.88 3.81 3.54
0.14 0.15 0.13 0.11 0.09 0.11 0.17 0.23 0.37 0.58 0.75 0.83 0.81 1.00 1.43 1.76 2.23 2.65 3.12 3.51 3.44 3.14 2.96 3.05 3.26 3.25 3.20 3.22 2.96 2.51 2.33 2.19 2.22 2.37 2.47 2.41 2.77 3.08 3.12 3.05 3.18 3.12 3.31 3.72 4.33 4.22 4.37 4.26 3.83
0.10 0.11 0.13 0.15 0.12 0.16 0.18 0.21 0.41 0.70 0.73 0.77 0.93 1.20 1.60 2.05 2.49 2.85 3.71 4.25 4.34 4.14 3.91 3.72 3.87 3.49 3.27 3.21 2.96 2.72 2.38 2.36 2.24 2.17 2.10 2.26 2.54 2.87 2.87 2.86 3.14 3.17 3.08 3.23 3.71 3.89 4.30 4.24 3.86
0.14 0.18 0.19 0.19 0.14 0.15 0.19 0.43 0.61 0.73 0.91 0.97 1.16 1.38 1.70 2.28 2.78 3.35 3.99 4.81 5.12 5.25 4.84 4.24 4.00 3.72 3.51 3.38 3.03 2.69 2.50 2.32 2.43 2.39 2.21 2.21 2.33 2.58 2.59 2.72 2.78 2.82 2.72 2.84 3.07 3.29 3.57 3.49 3.33
0.22 0.36 0.47 0.27 0.17 0.16 0.26 0.74 0.86 0.70 1.04 1.40 1.36 1.62 2.03 2.56 3.06 3.81 4.55 5.37 5.87 6.01 5.46 4.71 3.97 4.07 4.02 3.81 3.20 2.74 2.53 2.46 2.43 2.31 2.12 1.97 2.10 2.11 2.25 2.32 2.30 2.33 2.20 2.37 2.75 2.79 3.03 3.19 3.20
0.26 0.39 0.44 0.35 0.20 0.20 0.29 0.74 0.91 0.72 0.96 1.29 1.50 1.76 2.20 2.61 2.94 3.57 4.22 5.03 5.64 6.13 5.97 5.34 5.20 5.02 4.39 3.72 3.14 2.76 2.54 2.49 2.27 2.20 2.12 2.00 1.91 1.99 2.15 2.29 2.33 2.00 2.03 2.20 2.02 2.47 2.72 2.91 2.94
0.29 0.27 0.33 0.40 0.28 0.28 0.38 0.61 0.87 0.92 1.17 1.52 1.63 1.74 2.00 2.27 2.60 3.05 3.62 4.06 4.65 5.14 5.05 4.99 5.12 4.72 4.14 3.52 3.09 2.87 2.61 2.35 2.17 2.11 2.15 2.10 2.02 2.05 2.39 2.20 2.07 1.87 2.19 2.47 2.52 2.86 2.79 2.64 2.66
0.19 0.21 0.29 0.34 0.29 0.35 0.50 0.66 0.89 1.08 1.36 1.63 1.62 1.58 1.65 1.95 2.26 2.46 2.84 3.23 3.49 3.67 3.78 4.10 4.26 4.03 3.60 3.21 2.74 2.60 2.52 2.30 2.10 2.01 1.85 2.03 1.99 2.22 2.57 2.33 2.59 2.24 2.25 2.43 2.48 2.73 2.67 2.36 2.29
0.14 0.17 0.29 0.36 0.30 0.34 0.50 0.83 1.03 1.10 1.15 1.30 1.42 1.36 1.47 1.78 1.89 1.97 2.11 2.45 2.64 2.88 3.16 3.49 3.73 3.57 3.03 2.80 2.61 2.50 2.46 2.29 2.28 2.19 2.19 1.96 1.96 2.19 2.24 2.59 2.39 2.40 2.50 2.54 2.65 2.80 2.80 2.51 2.42
0.14 0.15 0.20 0.29 0.34 0.44 0.56 1.18 1.28 1.09 1.01 0.95 1.13 1.19 1.19 1.39 1.60 1.71 1.75 1.87 2.12 2.70 2.93 2.82 3.04 3.23 2.96 2.84 2.78 2.67 2.64 2.44 2.53 2.49 2.37 2.00 1.88 1.88 2.07 2.25 2.26 2.47 2.27 2.61 2.84 2.79 2.90 2.89 2.71
0.13 0.12 0.13 0.18 0.27 0.57 0.67 1.28 1.36 1.15 1.16 0.96 0.93 0.99 0.93 0.92 1.19 1.41 1.38 1.44 1.68 1.99 2.29 2.63 2.94 3.02 2.92 2.78 2.60 2.47 2.26 2.20 2.22 2.22 2.22 2.11 1.99 1.86 1.95 2.10 2.37 2.53 2.26 2.79 2.40 2.54 2.78 2.93 2.76
0.07 0.08 0.10 0.17 0.28 0.52 0.64 1.04 1.29 1.14 1.33 1.07 0.75 0.64 0.60 0.61 0.75 0.93 1.07 1.20 1.28 1.42 1.82 2.39 2.86 3.08 2.95 2.61 2.47 2.57 2.40 2.30 2.25 2.14 2.34 2.19 2.04 1.87 1.79 2.07 2.33 2.45 2.33 2.48 2.54 2.81 2.71 2.64 2.64
0.05 0.08 0.19 0.33 0.49 0.87 0.84 0.93 1.23 1.02 0.86 0.70 0.55 0.45 0.46 0.52 0.55 0.63 0.76 0.99 1.13 1.22 1.49 1.94 2.36 2.61 2.67 2.53 2.41 2.48 2.55 2.49 2.34 2.17 2.16 2.00 1.96 1.90 1.84 2.03 2.33 2.30 2.33 2.49 2.48 2.63 2.62 2.67 2.75
0.05 0.10 0.37 0.64 0.89 1.03 0.68 0.89 1.24 0.82 0.65 0.55 0.48 0.44 0.40 0.40 0.53 0.65 0.74 0.87 0.90 0.98 1.25 1.55 1.77 1.96 2.17 2.33 2.38 2.32 2.47 2.52 2.30 2.07 2.07 2.04 1.90 1.90 1.97 2.12 2.40 2.30 2.36 2.41 2.65 2.74 2.68 2.66 2.68
0.06 0.09 0.22 0.37 0.50 0.64 0.68 1.34 1.24 0.65 0.51 0.43 0.38 0.39 0.39 0.45 0.53 0.65 0.79 0.87 0.82 0.86 1.09 1.31 1.50 1.73 2.00 2.16 2.23 2.18 2.14 2.05 2.01 2.13 2.03 2.00 1.95 1.90 1.85 1.99 2.03 2.00 2.09 2.16 2.66 2.53 2.51 2.62 2.55
0.06 0.08 0.11 0.18 0.23 0.48 0.81 1.02 0.77 0.44 0.41 0.44 0.40 0.42 0.46 0.54 0.66 0.75 0.90 0.94 0.84 0.89 1.08 1.19 1.37 1.58 1.73 1.99 2.15 2.06 2.02 1.89 1.87 1.92 1.88 1.83 1.96 1.92 1.84 1.79 1.84 1.90 2.07 2.26 2.46 2.37 2.48 2.69 2.54
0.07 0.07 0.10 0.13 0.19 0.36 0.66 0.91 0.98 0.70 0.54 0.46 0.45 0.48 0.51 0.65 0.83 0.96 0.96 0.99 0.95 1.00 1.19 1.21 1.32 1.44 1.48 1.64 1.72 1.61 1.79 1.82 1.94 1.92 1.83 1.76 1.77 1.81 1.84 1.88 1.88 1.96 2.05 2.26 2.46 2.46 2.61 2.71 2.57
0.09 0.07 0.07 0.09 0.11 0.23 0.53 0.71 0.70 0.68 0.62 0.48 0.46 0.54 0.63 0.66 0.84 0.96 0.93 0.92 0.89 0.95 1.05 1.06 1.19 1.30 1.35 1.50 1.57 1.63 1.72 1.79 1.84 1.87 1.85 1.84 1.86 1.87 1.88 1.97 2.01 2.01 2.04 2.22 2.41 2.31 2.55 2.70 2.75
0.10 0.12 0.12 0.11 0.10 0.16 0.26 0.41 0.40 0.48 0.55 0.48 0.50 0.63 0.73 0.59 0.66 0.88 0.95 0.98 0.79 0.85 0.92 0.97 1.09 1.22 1.29 1.46 1.59 1.66 1.83 1.88 1.83 1.86 2.04 2.04 2.00 1.97 1.97 2.06 2.14 2.11 2.13 2.27 2.26 2.12 2.24 2.45 2.65